Regional Weather Roundup
Issued by NWS

Home | Current Version | Previous Version | Graphics & Text | Print | Product List | Glossary On
Versions: 1 2 3 4 5 6 7 8 9 10 11 12 13 14 15 16 17 18 19 20 21 22 23 24 25 26 27 28 29 30 31 32 33 34 35 36 37 38 39 40 41 42 43 44 45 46 47 48 49
000
ASUS45 KCYS 211210
RWRWY

WYOMING REGIONAL WEATHER ROUNDUP
NATIONAL WEATHER SERVICE CHEYENNE WY
500 AM MST SUN DEC 21 2014

NOTE:  "FAIR" INDICATES FEW OR NO CLOUDS BELOW 12,000 FEET
WITH NO SIGNIFICANT WEATHER AND/OR OBSTRUCTIONS TO VISIBILITY.

WYZ001-211300-
YELLOWSTONE NATIONAL PARK

CITY           SKY/WX    TMP DP  RH WIND       PRES   REMARKS
LK YELLOWSTONE   N/A     27  22  81 VRB6      29.68F WCI  20
6HR MIN TEMP:  26; 6HR MAX TEMP:  27; 6HR PCP:  0.08;

W YELLOWSTONE  NOT AVBL

$$
WYZ002>013-054>058-071-098>099-211300-
NORTHERN WYOMING

CITY           SKY/WX    TMP DP  RH WIND       PRES   REMARKS
JACKSON        CLOUDY    30  30 100 S10       29.73F VSB 1   WCI  21
CODY           FAIR      39  27  60 CALM      29.55F
GREYBULL       MOCLDY    15  13  91 SE3       29.61F
6HR MIN TEMP:  11; 6HR MAX TEMP:  17;

WORLAND        MOCLDY    17  14  88 CALM      29.58F
6HR MIN TEMP:   8; 6HR MAX TEMP:  17;

SHERIDAN       FAIR      25  18  74 NW8       29.50F WCI  16
6HR MIN TEMP:  20; 6HR MAX TEMP:  30;

BUFFALO        FAIR      32  16  51 W6        29.52F WCI  26
6HR MIN TEMP:  24; 6HR MAX TEMP:  37;

GILLETTE       FAIR      33  23  66 SW18      29.53F WCI  22
6HR MIN TEMP:  31; 6HR MAX TEMP:  35;

HULETT           N/A    N/A N/A N/A MISG        N/A
NEWCASTLE      FAIR      27  21  80 CALM      29.64F

$$
WYZ014>020-022>026-101>103-211300-
CENTRAL WYOMING

CITY           SKY/WX    TMP DP  RH WIND       PRES   REMARKS
BIG PINEY      LGT SNOW  25  22  88 E3        29.80F FOG
6HR MIN TEMP:  21; 6HR MAX TEMP:  26; 6HR PCP: TRACE;

PINEDALE       LGT SNOW  27  27 100 E7        29.81F WCI  19
DUBOIS         NOT AVBL
LANDER         FAIR      20  14  77 CALM      29.64F
6HR MIN TEMP:  11; 6HR MAX TEMP:  26;

RIVERTON       FAIR      13  10  88 CALM      29.64F
6HR MIN TEMP:  12; 6HR MAX TEMP:  19;

CASPER         FAIR      34  27  75 SW21G29   29.65F WCI  22
6HR MIN TEMP:  31; 6HR MAX TEMP:  35;

DOUGLAS        FAIR      37  25  61 W8        29.63F WCI  31
6HR MIN TEMP:  29; 6HR MAX TEMP:  39;


$$
WYZ021-027>030-104>119-211300-
SOUTHERN WYOMING

CITY           SKY/WX    TMP DP  RH WIND       PRES   REMARKS
EVANSTON       LGT SNOW  31  30  96 SW21G28   29.92F FOG     WCI  18
6HR MIN TEMP:  30; 6HR MAX TEMP:  32; 6HR PCP: TRACE;

KEMMERER       LGT SNOW  32  30  93 SW16      29.85F VSB 1   WCI  21
FORT BRIDGER   FLURRIES  35  31  84 W28G40    29.90F WCI  22
ROCK SPRINGS   LGT SNOW  30  28  92 SW18      29.87S FOG     WCI  18
6HR MIN TEMP:  29; 6HR MAX TEMP:  32; 6HR PCP: TRACE;

DIXON          LGT SNOW  32  27  83 SW17G23   29.92F WCI  21
RAWLINS        CLOUDY    32  24  72 SW21G28   29.79F WCI  20
6HR MIN TEMP:  28; 6HR MAX TEMP:  33;

SARATOGA       CLOUDY    32  27  80 SW9       29.86R WCI  24
LARAMIE        CLOUDY    30  21  69 S14       29.76F WCI  19
6HR MIN TEMP:  24; 6HR MAX TEMP:  31;

CHEYENNE       CLOUDY    38  19  46 SW17G25   29.74F WCI  28
6HR MIN TEMP:  29; 6HR MAX TEMP:  38;

TORRINGTON     FAIR     N/A N/A N/A SE5       29.68F
PINE BLUFFS    FAIR      30  21  69 SW9       29.74F WCI  22

$$


USA.gov is the U.S. government's official web portal to all federal, state and local government web resources and services.